Elizabeth City, NC

2:24 PM EST on February 22, 2018 (GMT -0500)
Elizabeth City Cgas-Regional

Weather History for KECG - April, 2013

Change the Weather History Date:

Thursday, April 25, 2013

  Actual Average Record
Temperature  
Mean Temperature 55 °F 61 °F  
Max Temperature 64 °F 72 °F 92 °F (1960)
Min Temperature 46 °F 50 °F 35 °F (1999)
Degree Days  
Heating Degree Days 10 5  
Month to date heating degree days 178 199  
Since 1 July heating degree days 2778 3136  
Cooling Degree Days 0 2  
Month to date cooling degree days 49 27  
Year to date cooling degree days 54 34  
Growing Degree Days 5 (Base 50)    
Moisture  
Dew Point 48 °F    
Average Humidity 73    
Maximum Humidity 90    
Minimum Humidity 55    
Precipitation  
Precipitation 0.00 in 0.09 in 1.17 in (2014)
Month to date precipitation 1.79 2.66  
Year to date precipitation 8.60 13.08  
Snow  
Snow 0.00 in - 0.00 in (2002)
Month to date snowfall 0.0  
Since 1 July snowfall T  
Snow Depth 0.00 in    
Sea Level Pressure  
Sea Level Pressure 30.20 in    
Wind  
Wind Speed 10 mph (NE)    
Max Wind Speed 23 mph    
Max Gust Speed 29 mph    
Visibility 10 miles    
Events      
T = Trace of Precipitation, MM = Missing Value Source: NWS Daily Summary

Daily Weather History Graph

Daily Weather History Graph

Search for Another Location

Airport or City:

Trip Planner

Search our weather history database for the weather conditions in past years. The results will help you decide how hot, cold, wet, or windy it might be!

Date:

Astronomy

Apr. 25, 2013 Rise Set
Actual Time 6:18 AM EDT 7:47 PM EDT
Civil Twilight 5:51 AM EDT 8:14 PM EDT
Nautical Twilight 5:18 AM EDT 8:47 PM EDT
Astronomical Twilight 4:44 AM EDT 9:21 PM EDT
Moon 7:57 PM EDT (4/25) 5:59 AM EDT (4/25)
Length of Visible Light 14h 23m
Length of Day
13h 29m
Full, 100% of the Moon is Illuminated
Apr 25
Full
Apr 25
Full
May 2
Last Quarter
May 9
New
May 18
First Quarter

Hourly Weather History & Observations

Time (EDT) Temp. Dew Point Humidity Pressure Visibility Wind Dir Wind Speed Gust Speed Precip Events Conditions
12:54 AM 64.0 °F 59.0 °F 84% 30.05 in 10.0 mi SSW 11.5 mph - N/A   Clear
1:54 AM 64.0 °F 59.0 °F 84% 30.04 in 10.0 mi SSW 11.5 mph - N/A   Clear
2:54 AM 63.0 °F 59.0 °F 87% 30.03 in 10.0 mi SSW 11.5 mph - N/A   Clear
3:54 AM 63.0 °F 59.0 °F 87% 30.03 in 10.0 mi SSW 11.5 mph - N/A   Mostly Cloudy
4:54 AM 63.0 °F 57.9 °F 84% 30.05 in 10.0 mi SW 12.7 mph - N/A   Overcast
5:54 AM 63.0 °F 57.9 °F 84% 30.09 in 10.0 mi SW 8.1 mph - N/A   Overcast
6:54 AM 63.0 °F 57.9 °F 84% 30.13 in 10.0 mi West 5.8 mph - N/A   Overcast
7:30 AM 60.8 °F 48.2 °F 63% 30.16 in 10.0 mi North 21.9 mph 28.8 mph N/A   Overcast
7:43 AM 59.0 °F 46.4 °F 63% 30.17 in 10.0 mi NNE 19.6 mph 27.6 mph N/A   Overcast
7:54 AM 57.9 °F 46.0 °F 65% 30.18 in 10.0 mi North 18.4 mph 24.2 mph N/A   Overcast
8:54 AM 57.0 °F 45.0 °F 64% 30.20 in 10.0 mi North 16.1 mph 27.6 mph N/A   Overcast
9:29 AM 57.2 °F 44.6 °F 63% 30.22 in 10.0 mi North 15.0 mph 21.9 mph N/A   Overcast
9:54 AM 57.0 °F 45.0 °F 64% 30.23 in 10.0 mi North 15.0 mph - N/A   Overcast
10:54 AM 57.0 °F 41.0 °F 55% 30.25 in 10.0 mi North 15.0 mph - N/A   Overcast
11:54 AM 59.0 °F 44.1 °F 58% 30.25 in 10.0 mi NE 15.0 mph - N/A   Overcast
12:54 PM 59.0 °F 45.0 °F 60% 30.24 in 10.0 mi NE 10.4 mph - N/A   Overcast
1:54 PM 61.0 °F 46.0 °F 58% 30.25 in 10.0 mi NNE 9.2 mph - N/A   Overcast
2:54 PM 61.0 °F 44.1 °F 54% 30.26 in 10.0 mi NNE 10.4 mph - N/A   Overcast
3:54 PM 61.0 °F 46.0 °F 58% 30.25 in 10.0 mi NE 10.4 mph - N/A   Scattered Clouds
4:54 PM 59.0 °F 45.0 °F 60% 30.24 in 10.0 mi ENE 10.4 mph - N/A   Mostly Cloudy
5:54 PM 57.9 °F 45.0 °F 62% 30.25 in 10.0 mi East 9.2 mph - N/A   Clear
6:54 PM 55.0 °F 43.0 °F 64% 30.25 in 10.0 mi East 9.2 mph - N/A   Clear
7:54 PM 51.1 °F 42.1 °F 71% 30.26 in 10.0 mi East 8.1 mph - N/A   Clear
8:54 PM 48.0 °F 43.0 °F 83% 30.29 in 10.0 mi East 4.6 mph - N/A   Clear
9:54 PM 48.9 °F 41.0 °F 74% 30.31 in 10.0 mi East 5.8 mph - N/A   Clear
10:54 PM 46.9 °F 41.0 °F 80% 30.31 in 10.0 mi East 5.8 mph - N/A   Clear
11:54 PM 46.9 °F 41.0 °F 80% 30.31 in 10.0 mi East 3.5 mph - N/A   Clear